FW5336 Weather Reports


Display with metric or nautical units.
time (UTC)temp
F
wind
direction
speed
MPH
gust
MPH
rain 1hr
in
rain 24hr
in
rain mn
in
humidity
%
barometer
mb
20260904203644 77 267 2.0 2.0 0.00 0.81 0.81 85 1015.1
20260904203140 77 258 1.0 2.0 0.00 0.81 0.81 85 1015.0
20260904202635 76 260 1.0 1.0 0.00 0.81 0.81 86 1014.7
20260904202132 76 233 1.0 1.0 0.00 0.81 0.81 87 1014.9
20260904201631 76 257 1.0 3.0 0.00 0.81 0.81 87 1015.0
20260904201126 76 254 1.0 2.0 0.00 0.81 0.81 87 1014.9
20260904200621 76 270 1.0 2.0 0.00 0.81 0.81 87 1015.0
20260904200116 77 212 0.0 2.0 0.00 0.81 0.81 87 1015.1
20260904195614 76 232 0.0 2.0 0.00 0.81 0.81 87 1015.3
20260904195108 77 231 1.0 1.0 0.00 0.81 0.81 87 1015.3
20260904194607 76 259 1.0 1.0 0.00 0.81 0.81 88 1015.3
20260904194102 76 259 0.0 1.0 0.00 0.81 0.81 87 1015.5
20260904193557 76 265 1.0 5.0 0.00 0.81 0.81 88 1015.5
20260904193054 76 254 1.0 1.0 0.00 0.81 0.81 89 1015.7
20260904192554 75 261 0.0 1.0 0.00 0.81 0.81 89 1015.7
20260904192049 75 300 1.0 2.0 0.00 0.81 0.81 90 1016.0
20260904191546 74 254 0.0 3.0 0.00 0.81 0.81 94 1016.0
20260904191042 74 287 0.0 1.0 0.00 0.81 0.81 96 1016.1
20260904190537 73 259 0.0 2.0 0.00 0.81 0.81 98 1016.1
20260904190034 73 321 1.0 2.0 0.00 0.81 0.81 99 1015.9
20260904185530 73 265 1.0 2.0 0.00 0.81 0.81 99 1016.1
20260904185024 72 259 0.0 1.0 0.00 0.81 0.81 99 1016.0
20260904184519 72 256 1.0 2.0 0.00 0.81 0.81 99 1016.2
20260904184014 72 228 2.0 2.0 0.00 0.81 0.81 99 1016.5
20260904183509 72 261 0.0 1.0 0.00 0.81 0.81 99 1016.6
20260904183005 72 266 1.0 2.0 0.00 0.81 0.81 99 1016.9
20260904182500 72 284 1.0 5.0 0.00 0.81 0.81 99 1017.2
20260904181959 72 266 0.0 1.0 0.00 0.81 0.81 99 1017.0
20260904181455 72 254 1.0 2.0 0.00 0.81 0.81 99 1017.0
20260904180950 72 222 0.0 2.0 0.00 0.81 0.81 99 1016.9
20260904180445 72 254 1.0 3.0 0.00 0.81 0.81 99 1016.7
20260904175944 72 252 0.0 1.0 0.00 0.81 0.81 99 1017.0
20260904175443 72 252 1.0 2.0 0.00 0.81 0.81 99 1016.9
20260904174938 72 271 0.0 1.0 0.00 0.81 0.81 99 1017.1
20260904174433 72 259 1.0 2.0 0.00 0.81 0.81 99 1017.0
20260904173930 72 267 1.0 2.0 0.00 0.81 0.81 99 1017.1
20260904173430 72 299 1.0 1.0 0.00 0.81 0.81 99 1016.7
20260904172925 71 221 1.0 2.0 0.00 0.81 0.81 99 1016.7
20260904172420 71 254 0.0 1.0 0.00 0.81 0.81 99 1017.4
20260904171909 71 227 0.0 1.0 0.00 0.81 0.81 99 1017.3
20260904171404 70 256 0.0 1.0 0.00 0.81 0.81 99 1017.5
20260904170901 71 176 1.0 1.0 0.00 0.81 0.81 99 1017.6
20260904170355 71 251 0.0 0.0 0.00 0.81 0.81 99 1017.3
20260904165850 71 261 0.0 1.0 0.00 0.81 0.81 99 1017.4
20260904165344 71 269 0.0 1.0 0.00 0.81 0.81 99 1017.6
20260904164838 70 304 0.0 1.0 0.00 0.81 0.81 99 1017.4
20260904164333 70 208 0.0 1.0 0.00 0.81 0.81 99 1017.4
20260904163829 70 266 1.0 2.0 0.00 0.81 0.81 99 1017.5
20260904163329 70 182 2.0 2.0 0.00 0.81 0.81 99 1016.9
20260904162828 70 252 0.0 1.0 0.00 0.81 0.81 99 1017.2
20260904162324 70 2 0.0 1.0 0.00 0.81 0.81 99 1017.1
20260904161820 69 252 3.0 3.0 0.07 0.81 0.81 99 1017.0
20260904161320 69 204 2.0 2.0 0.12 0.80 0.80 99 1016.9
20260904160815 69 166 3.0 5.0 0.26 0.79 0.79 99 1017.4
20260904160315 69 218 0.0 1.0 0.19 0.77 0.77 99 1018.2
20260904155810 69 237 0.0 1.0 0.17 0.75 0.75 99 1018.9
20260904155306 69 261 0.0 0.0 0.12 0.73 0.73 99 1018.7
20260904154803 69 195 0.0 0.0 0.19 0.72 0.72 99 1018.8
20260904154258 69 247 0.0 0.0 0.12 0.70 0.70 99 1019.3
20260904153753 69 262 0.0 1.0 0.12 0.69 0.69 99 1019.0
20260904153249 69 293 1.0 1.0 0.07 0.68 0.68 99 1019.0
20260904152745 69 222 0.0 0.0 0.05 0.67 0.67 99 1019.0
20260904152240 69 263 0.0 1.0 0.12 0.67 0.67 99 1019.1
20260904151735 69 250 0.0 0.0 0.07 0.66 0.66 99 1018.8
20260904151234 69 248 0.0 0.0 0.19 0.65 0.65 99 1018.5
20260904150730 69 307 0.0 0.0 0.26 0.64 0.64 99 1018.3
20260904150225 69 223 0.0 1.0 0.24 0.61 0.61 99 1018.6
20260904145723 69 229 0.0 1.0 0.24 0.59 0.59 99 1018.9
20260904145219 69 257 0.0 0.0 0.24 0.57 0.57 99 1019.0
20260904144714 69 257 0.0 0.0 0.19 0.55 0.55 99 1019.1
20260904144210 69 246 0.0 0.0 0.14 0.53 0.53 99 1019.2
20260904143705 69 248 0.0 2.0 0.07 0.52 0.52 99 1019.3
20260904143202 69 243 2.0 2.0 0.05 0.51 0.51 99 1019.5
20260904142658 69 266 0.0 1.0 0.12 0.51 0.51 99 1019.5
20260904142153 69 246 0.0 3.0 0.12 0.50 0.50 99 1019.8
20260904141648 69 256 0.0 2.0 0.12 0.49 0.49 99 1019.9
20260904141143 69 266 1.0 2.0 0.12 0.48 0.48 99 1019.9
20260904140639 70 256 3.0 3.0 0.12 0.47 0.47 99 1019.7
20260904140133 70 252 0.0 0.0 0.19 0.46 0.46 99 1019.5
20260904135632 70 245 0.0 0.0 0.12 0.45 0.45 99 1019.1
20260904135128 70 242 0.0 1.0 0.12 0.43 0.43 99 1018.8
20260904134619 70 242 3.0 3.0 0.12 0.42 0.42 99 1018.9
20260904134118 70 242 0.0 2.0 0.54 0.41 0.41 99 1019.1
20260904133613 70 242 0.0 1.0 0.54 0.39 0.39 99 1018.5
20260904133109 70 270 0.0 0.0 0.19 0.31 0.31 99 1018.7
20260904132608 70 249 0.0 1.0 0.31 0.30 0.30 99 1017.9
20260904132103 70 197 0.0 1.0 0.61 0.27 0.27 99 1017.9
20260904131602 70 278 2.0 2.0 0.73 0.24 0.24 99 1018.1
20260904131058 70 240 1.0 1.0 0.24 0.15 0.15 99 1018.7
20260904130557 70 315 1.0 3.0 0.05 0.12 0.12 99 1018.3
20260904130052 70 249 0.0 0.0 0.00 0.11 0.11 99 1018.2
20260904125550 70 256 0.0 0.0 0.00 0.11 0.11 99 1017.9
20260904125049 70 258 0.0 0.0 0.00 0.11 0.11 99 1018.0
20260904124544 70 243 0.0 0.0 0.07 0.11 0.11 99 1018.0
20260904124040 70 270 1.0 1.0 0.07 0.11 0.11 99 1018.0
20260904123540 70 270 0.0 0.0 0.05 0.10 0.10 99 1017.7
20260904123036 70 246 0.0 0.0 0.07 0.09 0.09 99 1018.0
20260904122531 70 239 0.0 0.0 0.07 0.09 0.09 99 1017.9
20260904122026 70 229 0.0 0.0 0.05 0.08 0.08 99 1017.7
20260904121521 70 242 0.0 0.0 0.05 0.08 0.08 99 1018.1
20260904121017 70 239 0.0 0.0 0.07 0.07 0.07 99 1018.1
20260904120513 70 245 0.0 1.0 0.07 0.07 0.07 99 1018.0
20260904120008 70 235 0.0 0.0 0.00 0.06 0.06 99 1017.9
20260904115504 70 214 1.0 1.0 0.00 0.06 0.06 99 1018.1
20260904115003 70 239 0.0 0.0 0.05 0.06 0.06 99 1018.0
20260904114458 70 237 0.0 0.0 0.00 0.05 0.05 99 1018.0
20260904113953 70 239 0.0 0.0 0.07 0.05 0.05 99 1018.3
20260904113452 70 229 0.0 0.0 0.07 0.05 0.05 99 1018.0
20260904112946 70 235 0.0 0.0 0.00 0.04 0.04 99 1018.1
20260904112442 70 248 0.0 0.0 0.12 0.04 0.04 99 1018.1
20260904111937 70 239 0.0 0.0 0.14 0.03 0.03 99 1018.0
20260904111433 70 242 0.0 0.0 0.07 0.02 0.02 99 1018.0
20260904110929 70 287 2.0 2.0 0.00 0.01 0.01 99 1017.8
20260904110427 70 239 0.0 0.0 0.00 0.01 0.01 99 1017.3
20260904105922 70 225 0.0 1.0 0.05 0.01 0.01 99 1017.3
20260904105417 70 229 0.0 2.0 0.05 0.01 0.01 99 1017.2
20260904104913 70 234 0.0 1.0 0.00 0.00 0.00 99 1017.0
20260904104407 69 211 1.0 1.0 0.00 0.00 0.00 99 1017.0
20260904103904 69 221 0.0 1.0 0.00 0.00 0.00 99 1017.1
20260904103405 69 115 2.0 2.0 0.00 0.00 0.00 99 1017.2
20260904102901 69 204 1.0 2.0 0.00 0.00 0.00 99 1017.4
20260904102355 69 234 0.0 0.0 0.00 0.00 0.00 99 1017.6
20260904101851 69 193 2.0 3.0 0.00 0.00 0.00 99 1017.3
20260904101348 69 202 1.0 3.0 0.00 0.00 0.00 99 1017.0
20260904100843 69 188 2.0 2.0 0.00 0.00 0.00 99 1017.0
20260904100339 69 215 1.0 1.0 0.00 0.00 0.00 99 1017.2
20260904095833 69 236 0.0 2.0 0.00 0.00 0.00 99 1016.9
20260904095328 69 229 1.0 2.0 0.00 0.00 0.00 99 1016.9
20260904094824 70 207 1.0 2.0 0.00 0.00 0.00 99 1016.3
20260904094318 70 188 2.0 2.0 0.00 0.00 0.00 99 1016.2
20260904093815 70 184 1.0 2.0 0.00 0.00 0.00 99 1016.0
20260904093315 70 212 2.0 3.0 0.00 0.00 0.00 99 1016.2
20260904092810 70 196 2.0 3.0 0.00 0.00 0.00 99 1016.2
20260904092307 70 138 3.0 3.0 0.00 0.00 0.00 99 1016.5
20260904091803 70 185 1.0 2.0 0.00 0.00 0.00 99 1016.6
20260904091303 70 108 1.0 1.0 0.00 0.00 0.00 99 1016.9
20260904090758 70 202 0.0 1.0 0.00 0.00 0.00 99 1016.9
20260904090254 70 180 1.0 1.0 0.00 0.00 0.00 99 1017.0
20260904085749 70 242 0.0 1.0 0.00 0.00 0.00 99 1017.3
20260904085244 70 201 0.0 1.0 0.00 0.00 0.00 99 1016.9
20260904084738 70 232 0.0 0.0 0.00 0.00 0.00 99 1017.0
20260904084234 70 249 1.0 1.0 0.00 0.00 0.00 99 1017.2
20260904083730 70 226 0.0 0.0 0.00 0.00 0.00 99 1017.2
20260904083227 70 225 0.0 1.0 0.00 0.00 0.00 99 1017.1
20260904082727 69 269 1.0 1.0 0.00 0.00 0.00 99 1017.4
20260904082222 69 239 0.0 0.0 0.00 0.00 0.00 99 1017.2
20260904081717 70 241 0.0 0.0 0.00 0.00 0.00 99 1017.1
20260904081213 69 232 0.0 0.0 0.00 0.00 0.00 99 1017.2
20260904080708 69 235 0.0 0.0 0.00 0.00 0.00 99 1017.0
20260904080204 69 234 0.0 0.0 0.00 0.00 0.00 99 1016.9
20260904075701 69 239 0.0 1.0 0.00 0.00 0.00 99 1017.0
20260904075155 69 239 0.0 0.0 0.00 0.00 0.00 99 1016.6
20260904074654 70 236 0.0 0.0 0.00 0.00 0.00 99 1016.5
20260904074149 70 235 0.0 0.0 0.00 0.00 0.00 99 1016.4
20260904073644 70 235 0.0 0.0 0.00 0.00 0.00 99 1016.7
20260904073140 70 241 0.0 0.0 0.00 0.00 0.00 99 1017.0
20260904072636 70 245 0.0 0.0 0.00 0.00 0.00 99 1016.9
20260904072131 70 248 0.0 0.0 0.00 0.00 0.00 99 1017.1
20260904071627 70 219 0.0 1.0 0.00 0.00 0.00 99 1016.7
20260904071126 70 280 0.0 1.0 0.00 0.00 0.00 99 1017.0
20260904070625 70 285 0.0 1.0 0.00 0.00 0.00 99 1017.1
20260904070120 70 241 0.0 0.0 0.00 0.00 0.00 99 1017.1
20260904065615 70 242 0.0 1.0 0.00 0.00 0.00 99 1017.0
20260904065112 70 281 0.0 0.0 0.00 0.00 0.00 99 1017.4
20260904064608 70 242 0.0 0.0 0.00 0.00 0.00 99 1017.4
20260904064107 70 241 0.0 0.0 0.00 0.00 0.00 99 1017.4
20260904063603 70 241 0.0 0.0 0.00 0.00 0.00 99 1017.3
20260904063059 70 242 0.0 0.0 0.00 0.00 0.00 99 1017.5
20260904062555 70 242 0.0 0.0 0.00 0.00 0.00 99 1017.6
20260904062050 70 241 0.0 0.0 0.00 0.00 0.00 99 1017.4
20260904061545 70 241 0.0 0.0 0.00 0.00 0.00 99 1017.5
20260904061042 70 242 0.0 0.0 0.00 0.00 0.00 99 1017.4
20260904060537 69 241 0.0 0.0 0.00 0.00 0.00 99 1017.3
20260904060033 69 242 0.0 0.0 0.00 0.00 0.00 99 1017.4
20260904055528 70 242 0.0 0.0 0.00 0.00 0.00 99 1017.2
20260904055024 69 242 0.0 0.0 0.00 0.00 0.00 99 1017.5
20260904054519 69 239 0.0 0.0 0.00 0.00 0.00 99 1017.7
20260904054015 69 242 0.0 0.0 0.00 0.00 0.00 99 1017.5
20260904053515 69 235 0.0 0.0 0.00 0.00 0.00 99 1017.2
20260904053010 69 236 0.0 0.0 0.00 0.00 0.00 99 1017.6
20260904052506 69 235 0.0 0.0 0.00 0.00 0.00 99 1017.6
20260904052002 69 239 0.0 0.0 0.00 0.00 0.00 99 1017.8
20260904051459 69 241 0.0 0.0 0.00 0.00 0.00 99 1017.7
20260904050957 69 241 0.0 0.0 0.00 0.00 0.00 99 1017.6
20260904050455 69 242 0.0 0.0 0.00 0.00 0.00 99 1017.7
20260904045949 69 249 0.0 0.0 0.00 0.00 0.00 99 1018.0
20260904045444 69 245 0.0 0.0 0.00 0.00 0.00 99 1017.8
20260904044939 69 242 0.0 0.0 0.00 0.00 0.00 99 1017.7
20260904044435 69 242 0.0 0.0 0.00 0.00 0.00 99 1017.4
20260904043931 69 242 0.0 0.0 0.00 0.00 0.00 99 1017.5
20260904043428 69 242 0.0 0.0 0.00 0.00 0.00 99 1017.7
20260904042923 69 242 0.0 0.0 0.00 0.00 0.00 99 1017.8
20260904042419 69 241 0.0 0.0 0.00 0.00 0.00 99 1017.7
20260904041913 69 249 0.0 0.0 0.00 0.00 0.00 99 1017.6
20260904041410 69 239 0.0 0.0 0.00 0.00 0.00 99 1017.5
20260904040906 69 241 0.0 0.0 0.00 0.00 0.00 99 1017.3
20260904040400 69 245 0.0 0.0 0.00 0.00 0.00 99 1017.3
20260904035856 69 239 0.0 0.0 0.00 1.30 1.30 99 1017.5
20260904035352 69 232 0.0 0.0 0.00 1.30 1.30 99 1017.4
20260904034851 69 249 0.0 0.0 0.00 1.30 1.30 99 1017.4
20260904034347 69 233 0.0 0.0 0.00 1.30 1.30 99 1017.5
20260904033843 69 298 1.0 1.0 0.00 1.30 1.30 99 1017.5
20260904033339 69 220 0.0 0.0 0.00 1.30 1.30 99 1017.3
20260904032835 69 241 0.0 0.0 0.00 1.30 1.30 99 1017.3
20260904032335 69 234 0.0 0.0 0.00 1.30 1.30 99 1017.3
20260904031828 69 240 0.0 0.0 0.00 1.30 1.30 99 1017.1
20260904031324 69 223 1.0 1.0 0.00 1.30 1.30 99 1017.1
20260904030820 69 245 0.0 0.0 0.00 1.30 1.30 99 1017.4
20260904030315 69 278 1.0 1.0 0.00 1.30 1.30 99 1017.3
20260904025811 69 221 1.0 1.0 0.00 1.30 1.30 99 1017.3
20260904025307 69 206 1.0 1.0 0.00 1.30 1.30 99 1017.1
20260904024807 69 249 0.0 0.0 0.00 1.30 1.30 99 1017.0
20260904024302 69 263 0.0 0.0 0.00 1.30 1.30 99 1016.9
20260904023759 69 228 0.0 0.0 0.00 1.30 1.30 99 1016.7
20260904023254 69 237 0.0 0.0 0.00 1.30 1.30 99 1017.0
20260904022753 69 249 0.0 0.0 0.00 1.30 1.30 99 1016.9
20260904022250 69 278 0.0 0.0 0.00 1.30 1.30 99 1016.6
20260904021746 69 292 0.0 0.0 0.00 1.30 1.30 99 1016.9
20260904021241 69 241 0.0 0.0 0.00 1.30 1.30 99 1017.0
20260904020737 69 271 1.0 1.0 0.00 1.30 1.30 99 1016.6
20260904020236 70 279 1.0 1.0 0.00 1.30 1.30 99 1016.6
20260904015735 69 252 0.0 0.0 0.00 1.30 1.30 99 1016.5
20260904015231 69 242 0.0 0.0 0.00 1.30 1.30 99 1016.4
20260904014729 70 242 0.0 0.0 0.00 1.30 1.30 99 1016.6
20260904014224 70 241 0.0 0.0 0.00 1.30 1.30 99 1016.9
20260904013720 70 242 0.0 0.0 0.00 1.30 1.30 99 1017.0
20260904013216 70 241 0.0 0.0 0.00 1.30 1.30 99 1016.9
20260904012712 70 234 0.0 0.0 0.00 1.30 1.30 99 1016.7
20260904012210 70 240 0.0 0.0 0.00 1.30 1.30 99 1016.9
20260904011705 70 239 0.0 0.0 0.00 1.30 1.30 99 1016.7
20260904011201 70 242 0.0 0.0 0.00 1.30 1.30 99 1016.6
20260904010655 70 245 0.0 1.0 0.00 1.30 1.30 99 1016.6
20260904010152 70 239 0.0 0.0 0.00 1.30 1.30 99 1016.7
20260904005647 70 240 0.0 0.0 0.00 1.30 1.30 99 1017.0
20260904005143 70 241 0.0 0.0 0.00 1.30 1.30 99 1017.0
20260904004637 70 238 0.0 0.0 0.00 1.30 1.30 99 1016.5
20260904004132 70 249 0.0 0.0 0.00 1.30 1.30 99 1016.7
20260904003628 70 241 0.0 0.0 0.00 1.30 1.30 99 1016.6
20260904003124 70 248 0.0 0.0 0.00 1.30 1.30 99 1016.3
20260904002620 71 268 0.0 1.0 0.00 1.30 1.30 99 1016.3
20260904002119 71 245 0.0 1.0 0.00 1.30 1.30 99 1016.2
20260904001615 71 252 0.0 0.0 0.00 1.30 1.30 99 1016.1
20260904001113 70 248 0.0 0.0 0.00 1.30 1.30 99 1016.1
20260904000609 70 256 0.0 0.0 0.00 1.30 1.30 99 1015.8
20260904000105 71 252 0.0 0.0 0.00 1.30 1.30 99 1015.9
20260903235604 71 321 1.0 1.0 0.00 1.30 1.30 99 1015.6
20260903235101 71 248 0.0 0.0 0.00 1.30 1.30 99 1015.7
20260903234555 71 290 0.0 1.0 0.00 1.30 1.30 99 1016.1
20260903234051 71 258 0.0 1.0 0.00 1.30 1.30 99 1016.1
20260903233547 71 133 1.0 1.0 0.00 1.30 1.30 99 1015.8
20260903233043 71 258 1.0 1.0 0.00 1.30 1.30 99 1016.3
20260903232538 71 260 0.0 0.0 0.00 1.30 1.30 99 1015.8
20260903232033 71 249 0.0 0.0 0.00 1.30 1.30 99 1015.8
20260903231527 71 323 0.0 0.0 0.00 1.30 1.30 99 1015.9
20260903231022 71 240 0.0 0.0 0.00 1.30 1.30 99 1016.1
20260903230518 71 243 0.0 0.0 0.00 1.30 1.30 99 1016.2
20260903230016 71 250 0.0 0.0 0.00 1.30 1.30 99 1016.3
20260903225514 71 180 0.0 1.0 0.00 1.30 1.30 98 1016.3
20260903225010 71 240 0.0 0.0 0.00 1.30 1.30 99 1016.1
20260903224506 71 178 2.0 3.0 0.00 1.30 1.30 98 1016.4
20260903224002 71 231 0.0 0.0 0.00 1.30 1.30 98 1017.0
20260903223501 71 248 0.0 1.0 0.00 1.30 1.30 98 1016.7
20260903223000 71 247 0.0 0.0 0.00 1.30 1.30 98 1016.9
20260903222455 71 247 0.0 0.0 0.00 1.30 1.30 98 1017.1
20260903221954 71 238 0.0 1.0 0.00 1.30 1.30 98 1017.1
20260903221450 71 255 0.0 0.0 0.00 1.30 1.30 98 1017.0
20260903220947 71 249 0.0 2.0 0.00 1.30 1.30 98 1016.9
20260903220441 71 326 1.0 1.0 0.00 1.30 1.30 98 1017.3
20260903215939 71 233 1.0 1.0 0.00 1.30 1.30 98 1016.9
20260903215436 71 282 0.0 1.0 0.00 1.30 1.30 98 1017.2
20260903214933 70 239 0.0 1.0 0.00 1.30 1.30 98 1017.4
20260903214430 70 145 1.0 1.0 0.00 1.30 1.30 98 1017.5
20260903213929 70 232 0.0 0.0 0.00 1.30 1.30 98 1017.7
20260903213425 70 240 0.0 0.0 0.00 1.30 1.30 98 1018.1
20260903212920 70 241 0.0 0.0 0.00 1.30 1.30 98 1018.2
20260903212416 70 241 0.0 0.0 0.00 1.30 1.30 98 1017.8
20260903211916 70 289 1.0 1.0 0.00 1.30 1.30 98 1017.8
20260903211412 70 232 0.0 0.0 0.07 1.30 1.30 98 1018.0
20260903210908 70 208 1.0 2.0 0.12 1.29 1.29 98 1018.0
20260903210407 70 223 1.0 2.0 0.94 1.29 1.29 97 1018.1
20260903205903 70 168 2.0 2.0 0.90 1.25 1.25 97 1018.3
20260903205402 70 249 0.0 0.0 0.35 1.13 1.13 97 1018.9
20260903204857 70 202 0.0 1.0 0.19 1.09 1.09 97 1018.6
20260903204353 70 232 0.0 2.0 0.00 1.06 1.06 97 1019.4